Weather Roundup
Issued by NWS Chicago, IL

Home | Current Version | Previous Version | Text Only | Print | Product List | Glossary On
Versions: 1 2 3 4 5 6 7 8 9 10 11 12 13 14 15 16 17 18 19 20 21 22 23 24 25 26 27 28 29 30 31 32 33 34 35 36 37 38 39 40 41 42 43 44 45 46 47 48 49 50
000
NZUS59 KLOT 171610
HRRLOT

CHICAGO AREA WEATHER ROUNDUP
NATIONAL WEATHER SERVICE CHICAGO/ROMEOVILLE IL
1100 AM CDT THU APR 17 2014

NOTE: "FAIR" INDICATES FEW OR NO CLOUDS BELOW 12,000 FEET WITH NO
SIGNIFICANT WEATHER AND/OR OBSTRUCTIONS TO VISIBILITY.

* THESE STATIONS ARE NOT UNDER NWS QUALITY CONTROL. THEY ALSO MAY NOT
  REPORT WEATHER SUCH AS PRECIPITATION OR FOG.

ILZ005-006-012>014-019>023-171700-
NORTHEAST ILLINOIS

CITY           SKY/WX    TMP DP  RH WIND       PRES   REMARKS
OHARE          MOSUNNY   54  33  45 SW18      30.16R
MIDWAY         PTSUNNY   55  35  47 SW15      30.18R
AURORA         MOSUNNY   53  40  61 W15G22    30.18R
LANSING*       SUNNY     55  34  44 SW17      30.20R
JOLIET*        SUNNY     55  34  44 SW10      30.20R
WAUKEGAN       MOSUNNY   52  36  54 SW17G28   30.14R
DUPAGE AIRPORT MOSUNNY   54  38  54 SW15G21   30.17R
WHEELING       SUNNY     54  35  48 SW15G21   30.17R
KANKAKEE*      SUNNY     56  36  47 SW17      30.22S
MORRIS*        SUNNY     55  32  42 SW13      30.19R
LEWIS AIRPORT* SUNNY     55  35  46 W15       30.19R
NORTHERLY IS     N/A     53  31  43 S10         N/A
$$

WIZ051-052-058>065-066-070>072-171700-
SOUTHEAST WISCONSIN

CITY           SKY/WX    TMP DP  RH WIND       PRES   REMARKS
MILWAUKEE      PTSUNNY   52  36  54 W17G24    30.14R
KENOSHA*       MOSUNNY   51  40  65 W16G25    30.14R
RACINE*        PTSUNNY   52  38  58 W16G24    30.15R
BURLINGTON     CLOUDY    48  37  64 SW17      30.14R
WAUKESHA       CLOUDY    46  36  66 SW14      30.13R
WEST BEND      CLOUDY    46  32  57 SW13G18   30.11R
$$

INZ001>003-010>013-019-020-171700-
NORTHWEST INDIANA

CITY           SKY/WX    TMP DP  RH WIND       PRES   REMARKS
GARY*          MOSUNNY   55  30  38 SW17G29     N/A
MICHIGAN CITY* NOT AVBL
RENSSELAER*    NOT AVBL
VALPARAISO     SUNNY     56  30  37 SW18      30.21S
$$

LMZ740>746-171700-
SOUTHERN LAKE MICHIGAN

STATION/POSITION TIME  SKY/WX   TEMP WIND        PRES    VSBY
                                AIR  DIR/SP/G
                 (UTC)          (F)  (DEG/KT/KT) (MB)    (MI)
HARRISON CRIB    1600            50  200/ 16/ 19   N/A
BURNHAM HARBOR   1600            53  190/ 15/ 15   N/A
CALUMET HARBOR   1600            51  190/ 15/ 18 1022.6R
BURNS HARBOR     NOT AVBL
MICHIGAN CITY    1600            52  190/ 19/ 25   N/A
$$

ABBREVIATIONS USED IN REMARKS
   TC - TEMPERATURE IN CELSIUS
  WCI - WIND CHILL INDEX
   HX - HEAT INDEX
  VSB - VISIBILITY
$$


USA.gov is the U.S. government's official web portal to all federal, state and local government web resources and services.